Flag for Mexico Weather past 2 weeks in Cozumel, Quintana Roo, Mexico

Now
79 °F

Scattered clouds.


Feels Like: 81 °F
Forecast: 77 / 82 °F
Wind: 17 mph from Southeast

Location: Cozumel Civ / Mil

Current Time: Mar 3, 2015 at 11:09:27 AM

Latest Report: Mar 3, 2015 at 10:48 AM


Visibility: 8 mi

Pressure: 30.10 "Hg

Humidity: 74%

Dew point: 70 °F

Location of CozumelLocation

Historic Weather in Cozumel — Graph

°F

Cozumel temperature yesterday

Maximum temperature yesterday: 79 °F (at 10:45 AM)
Minimum temperature yesterday: 70 °F (at 12:44 AM)
Average temperature yesterday: 74 °F

Past Weeks' High & Low Weather Summary

 TemperatureHumidityPressure
High84 °F (Feb 24, 12:53 PM)100% (Feb 16, 10:46 PM)30.26 "Hg (Feb 16, 10:46 PM)
Low57 °F (Feb 20, 10:42 PM)57% (Feb 19, 2:40 PM)29.80 "Hg (Feb 26, 4:50 AM)
Average72 °F86%30.05 "Hg
* Reported Feb 16 9:47 AM — Mar 3 9:48 AM, Cozumel, Weather by CustomWeather, © 2015

Note: Actual official high and low records may vary slightly from our data, if they occured in-between our weather recording intervals... More about our weather records

Advertising

Cozumel weather history for previous 24 hours

 ConditionsComfort  
Time TempWeatherWind HumidityBarometerVisibility
9:48 AM
Tue, Mar 3
75 °FScattered clouds.8 mph83%30.12 "Hg8 mi
8:45 AM73 °FPassing clouds.5 mph89%30.09 "Hg8 mi
7:44 AM66 °FPassing clouds.No wind100%30.07 "Hg7 mi
6:45 AM68 °FPassing clouds.5 mph100%30.03 "Hg7 mi
5:40 AM68 °FPassing clouds.No wind100%30.04 "Hg7 mi
4:44 AM68 °FPassing clouds.No wind100%30.03 "Hg7 mi
3:42 AM70 °FPassing clouds.6 mph94%30.06 "Hg7 mi
2:40 AM70 °FPassing clouds.No wind100%30.06 "Hg7 mi
2:32 AM70 °FPassing clouds.No wind100%30.06 "Hg7 mi
1:41 AM70 °FPassing clouds.5 mph100%30.07 "Hg7 mi
12:40 AM70 °FPassing clouds.5 mph100%30.07 "Hg7 mi
11:42 PM
Mon, Mar 2
72 °FPassing clouds.5 mph100%30.11 "Hg7 mi
10:45 PM72 °FPassing clouds.5 mph94%30.12 "Hg7 mi
9:43 PM72 °FPassing clouds.No wind94%30.14 "Hg7 mi
8:40 PM73 °FPassing clouds.5 mph94%30.10 "Hg7 mi
7:41 PM73 °FPassing clouds.5 mph94%30.08 "Hg7 mi
6:43 PM77 °FPassing clouds.5 mph83%30.05 "Hg8 mi
5:44 PM77 °FScattered clouds.8 mph83%30.07 "Hg8 mi
4:50 PM79 °FScattered clouds.10 mph79%30.07 "Hg8 mi
3:48 PM79 °FPartly sunny.12 mph74%30.10 "Hg8 mi
2:42 PM79 °FPartly sunny.10 mph74%30.11 "Hg7 mi
1:44 PM77 °FPartly sunny.8 mph74%30.13 "Hg7 mi
12:49 PM75 °FPartly sunny.16 mph89%30.12 "Hg7 mi
11:46 AM77 °FScattered clouds.14 mph83%30.18 "Hg8 mi
Weather by CustomWeather, © 2015

See weather overviewHow to use our weather pages